This demonstration page uses our WeatherBlox Daily Observations layout. Learn more.

Left ArrowRight Arrow

40.97296, -117.73568

Hourly Observations for August 27, 2020

Temp ( °F °C ) Dew Point ( °F °C ) Humidity (%) Winds ( mph kmh ) Pressure ( in mb ) Visibility ( mi km ) Precip ( " mm )
12:40 am 00:40 Partly Cloudy with Nearby Thunderstorms 72 22.2 45 7.2 38 38 NNW 16 26 29.65 1004 10 16 0.00 0.00
12:51 am 00:51 Mostly Clear 73 23 45 7 36 36 undefined N/A 29.64 1004 10 16 0.00 0.00
12:56 am 00:56 Clear 74 23.3 44 6.7 34 34 N 14 22 29.72 1007 10 16 0.00 0.00
1:56 am 01:56 Clear 69 20.6 47 8.3 45 45 Calm 29.76 1008 9 14 0.00 0.00
2:56 am 02:56 Partly Cloudy 68 20 48 8.9 49 49 WNW 5 7 29.78 1009 8 13 0.00 0.00
3:56 am 03:56 Clear 68 20 48 8.9 49 49 E 5 7 29.79 1009 8 13 0.00 0.00
4:56 am 04:56 Mostly Cloudy 62 16.7 47 8.3 58 58 Calm 29.80 1009 8 13 0.00 0.00
5:56 am 05:56 Cloudy 66 18.9 48 8.9 52 52 SSE 7 11 29.78 1008 10 16 0.00 0.00
6:56 am 06:56 Sunny 68 20 45 7.2 44 44 S 13 20 29.79 1009 10 16 0.03 0.76
7:56 am 07:56 Sunny 68 20 47 8.3 47 47 SW 8 13 29.81 1010 9 14 0.00 0.00
8:56 am 08:56 Sunny 75 23.9 45 7.2 34 34 WNW 7 11 29.83 1010 10 16 0.00 0.00
9:56 am 09:56 Sunny 78 25.6 43 6.1 29 29 VRB 6 9 29.84 1010 10 16 0.00 0.00
10:56 am 10:56 Sunny 82 27.8 42 5.6 24 24 WSW 8 13 29.83 1010 10 16 0.00 0.00
11:56 am 11:56 Sunny 83 28.3 41 5 23 23 ENE 6 9 29.81 1010 10 16 0.00 0.00
12:56 pm 12:56 Sunny 84 28.9 44 6.7 25 25 Calm 29.79 1009 7 11 0.00 0.00
1:56 pm 13:56 Sunny 87 30.6 40 4.4 19 19 NW 10 17 29.78 1009 7 11 0.00 0.00
2:56 pm 14:56 Mostly Sunny 90 32.2 29 -1.7 11 11 VRB 7 11 29.75 1008 10 16 0.00 0.00
3:56 pm 15:56 Mostly Sunny 90 32.2 34 1.1 14 14 WNW 8 13 29.75 1007 9 14 0.00 0.00
4:56 pm 16:56 Partly Cloudy 91 32.8 30 -1.1 11 11 W 9 15 29.75 1007 10 16 0.00 0.00
5:56 pm 17:56 Partly Cloudy 90 32.2 24 -4.4 9 9 WNW 6 9 29.74 1007 10 16 0.00 0.00
6:56 pm 18:56 Partly Cloudy 86 30 35 1.7 16 16 NNW 8 13 29.75 1007 8 13 0.00 0.00
7:56 pm 19:56 Partly Cloudy 78 25.6 37 2.8 23 23 N 8 13 29.78 1009 10 16 0.00 0.00
8:56 pm 20:56 Clear 78 25.6 38 3.3 24 24 NE 10 17 29.80 1009 10 16 0.00 0.00
9:56 pm 21:56 Clear 74 23.3 40 4.4 29 29 N 7 11 29.81 1010 10 16 0.00 0.00
10:56 pm 22:56 Clear 73 22.8 39 3.9 29 29 N 9 15 29.82 1010 10 16 0.00 0.00
11:56 pm 23:56 Clear 73 22.8 39 3.9 29 29 NE 10 17 29.83 1010 10 16 0.00 0.00

Powered by AerisWeather